DW8906 Weather Reports


Display with metric or nautical units.
time (UTC)temp
F
wind
direction
speed
MPH
gust
MPH
rain 1hr
in
rain 24hr
in
rain mn
in
humidity
%
barometer
mb
20181217045504 30 248 0.0 0.0 0.00 0.00 0.00 55 1024.0
20181217044504 30 248 0.0 0.0 0.00 0.00 0.00 55 1024.0
20181217043404 30 248 0.0 0.0 0.00 0.00 0.00 55 1024.0
20181217042204 30 225 0.0 0.0 0.00 0.00 0.00 55 1024.0
20181217041105 30 248 0.0 0.0 0.00 0.00 0.00 55 1024.0
20181217040004 32 203 0.0 0.0 0.00 0.00 0.00 51 1024.4
20181217034904 33 225 0.0 2.0 0.00 0.00 0.00 51 1024.4
20181217033804 33 225 1.0 3.0 0.00 0.00 0.00 51 1024.4
20181217032803 32 203 1.0 1.0 0.00 0.00 0.00 53 1024.4
20181217031704 34 180 1.0 3.0 0.00 0.00 0.00 50 1024.4
20181217030703 33 158 1.0 2.0 0.00 0.00 0.00 51 1024.4
20181217025604 31 203 0.0 2.0 0.00 0.00 0.00 54 1024.4
20181217024504 32 225 0.0 1.0 0.00 0.00 0.00 53 1024.4
20181217023503 32 225 2.0 2.0 0.00 0.00 0.00 51 1024.4
20181217022404 32 203 3.0 3.0 0.00 0.00 0.00 50 1024.4
20181217021304 32 248 3.0 3.0 0.00 0.00 0.00 50 1024.7
20181217020204 32 248 2.0 3.0 0.00 0.00 0.00 50 1024.4
20181217015104 32 225 3.0 3.0 0.00 0.00 0.00 49 1024.4
20181217014103 32 248 2.0 2.0 0.00 0.00 0.00 48 1024.4
20181217013004 32 270 2.0 2.0 0.00 0.00 0.00 48 1024.4
20181217011704 32 248 1.0 2.0 0.00 0.00 0.00 46 1024.4
20181217010604 32 225 2.0 2.0 0.00 0.00 0.00 45 1024.4
20181217005504 33 225 0.0 2.0 0.00 0.00 0.00 43 1024.4
20181217004404 34 158 0.0 0.0 0.00 0.00 0.00 41 1024.4
20181217003304 35 180 0.0 1.0 0.00 0.00 0.00 40 1024.4
20181217002204 36 180 2.0 3.0 0.00 0.00 0.00 40 1024.0
20181217001203 36 113 1.0 3.0 0.00 0.00 0.00 39 1024.0
20181217000103 37 203 3.0 4.0 0.00 0.00 0.00 37 1024.0
20181216235004 38 158 4.0 5.0 0.00 0.00 0.00 37 1023.7
20181216233904 38 180 5.0 5.0 0.00 0.00 0.00 37 1024.0
20181216232804 39 113 3.0 4.0 0.00 0.00 0.00 35 1024.0
20181216231704 41 158 4.0 4.0 0.00 0.00 0.00 35 1023.7
20181216230604 42 158 4.0 8.0 0.00 0.00 0.00 34 1023.7
20181216225504 43 158 4.0 6.0 0.00 0.00 0.00 32 1023.4
20181216224404 45 135 4.0 7.0 0.00 0.00 0.00 30 1023.4
20181216223403 45 135 5.0 6.0 0.00 0.00 0.00 30 1023.4
20181216222304 46 158 6.0 8.0 0.00 0.00 0.00 29 1023.4
20181216221204 47 135 6.0 7.0 0.00 0.00 0.00 27 1023.0
20181216220104 47 158 6.0 7.0 0.00 0.00 0.00 27 1023.0
20181216215004 48 158 8.0 9.0 0.00 0.00 0.00 27 1023.0
20181216213804 49 135 7.0 10.0 0.00 0.00 0.00 25 1023.0
20181216212704 49 180 5.0 8.0 0.00 0.00 0.00 25 1023.0
20181216211603 50 158 4.0 6.0 0.00 0.00 0.00 25 1023.0
20181216210505 50 113 6.0 7.0 0.00 0.00 0.00 25 1023.0
20181216205503 50 158 3.0 9.0 0.00 0.00 0.00 24 1023.0
20181216204304 50 158 7.0 9.0 0.00 0.00 0.00 24 1023.4
20181216203203 50 158 5.0 8.0 0.00 0.00 0.00 24 1023.4
20181216202104 50 158 8.0 8.0 0.00 0.00 0.00 24 1023.4
20181216201104 50 158 4.0 9.0 0.00 0.00 0.00 24 1023.4
20181216195904 51 158 7.0 10.0 0.00 0.00 0.00 24 1023.4
20181216194804 50 158 8.0 8.0 0.00 0.00 0.00 22 1023.4
20181216193704 50 158 8.0 10.0 0.00 0.00 0.00 22 1023.7
20181216192604 50 180 5.0 9.0 0.00 0.00 0.00 22 1023.7
20181216191604 49 135 4.0 9.0 0.00 0.00 0.00 24 1023.7
20181216190504 50 113 10.0 10.0 0.00 0.00 0.00 25 1024.0
20181216185403 49 203 7.0 8.0 0.00 0.00 0.00 25 1024.0
20181216184304 49 158 4.0 8.0 0.00 0.00 0.00 25 1024.4
20181216183204 49 158 5.0 8.0 0.00 0.00 0.00 27 1024.4
20181216182104 49 180 5.0 8.0 0.00 0.00 0.00 27 1024.7
20181216181004 49 180 3.0 8.0 0.00 0.00 0.00 27 1024.7
20181216175904 49 158 5.0 6.0 0.00 0.00 0.00 29 1025.1
20181216174804 48 135 3.0 4.0 0.00 0.00 0.00 29 1025.1
20181216173704 48 180 4.0 4.0 0.00 0.00 0.00 29 1025.1
20181216172704 49 158 3.0 4.0 0.00 0.00 0.00 29 1025.1
20181216171604 48 90 0.0 0.0 0.00 0.00 0.00 29 1025.4
20181216170503 47 113 2.0 6.0 0.00 0.00 0.00 30 1025.4
20181216165404 48 113 5.0 5.0 0.00 0.00 0.00 30 1025.4
20181216164304 47 113 3.0 3.0 0.00 0.00 0.00 30 1025.4
20181216163304 48 113 3.0 4.0 0.00 0.00 0.00 29 1025.4
20181216162204 47 113 3.0 3.0 0.00 0.00 0.00 30 1025.4
20181216161104 47 90 2.0 3.0 0.00 0.00 0.00 30 1025.4
20181216160103 45 90 1.0 2.0 0.00 0.00 0.00 31 1025.4
20181216155004 43 23 0.0 0.0 0.00 0.00 0.00 35 1025.4
20181216153903 41 203 0.0 0.0 0.00 0.00 0.00 35 1025.1
20181216152804 39 270 0.0 0.0 0.00 0.00 0.00 39 1025.1
20181216151704 36 270 0.0 3.0 0.00 0.00 0.00 45 1025.1
20181216150604 34 270 2.0 2.0 0.00 0.00 0.00 45 1025.1
20181216145504 34 270 0.0 1.0 0.00 0.00 0.00 45 1025.1
20181216144404 30 270 2.0 2.0 0.00 0.00 0.00 50 1025.1
20181216143404 29 270 2.0 2.0 0.00 0.00 0.00 53 1025.1
20181216142203 28 270 2.0 3.0 0.00 0.00 0.00 55 1025.1
20181216141103 27 270 3.0 3.0 0.00 0.00 0.00 58 1025.1
20181216140004 27 248 2.0 3.0 0.00 0.00 0.00 56 1025.1
20181216134903 27 270 3.0 3.0 0.00 0.00 0.00 56 1025.1
20181216133804 27 270 3.0 3.0 0.00 0.00 0.00 56 1025.1
20181216132704 28 293 4.0 4.0 0.00 0.00 0.00 55 1025.1
20181216131605 27 225 3.0 3.0 0.00 0.00 0.00 56 1024.7
20181216130504 31 203 2.0 3.0 0.00 0.00 0.00 49 1024.7
20181216125504 27 248 2.0 3.0 0.00 0.00 0.00 55 1024.7
20181216124405 27 270 3.0 3.0 0.00 0.00 0.00 55 1024.7
20181216123304 27 270 2.0 3.0 0.00 0.00 0.00 55 1024.7
20181216122104 28 270 2.0 3.0 0.00 0.00 0.00 55 1024.4
20181216121103 27 270 2.0 2.0 0.00 0.00 0.00 56 1024.0
20181216115604 27 270 2.0 2.0 0.00 0.00 0.00 56 1024.4
20181216114504 28 270 3.0 3.0 0.00 0.00 0.00 55 1024.4
20181216113404 28 270 2.0 3.0 0.00 0.00 0.00 55 1024.4
20181216112305 28 248 3.0 3.0 0.00 0.00 0.00 55 1024.4
20181216111203 28 270 3.0 3.0 0.00 0.00 0.00 54 1024.0
20181216110004 29 270 3.0 4.0 0.00 0.00 0.00 51 1024.0
20181216104604 30 270 2.0 3.0 0.00 0.00 0.00 50 1024.4
20181216103604 31 248 1.0 2.0 0.00 0.00 0.00 48 1023.7
20181216102504 32 203 2.0 3.0 0.00 0.00 0.00 46 1024.0
20181216101404 28 248 2.0 2.0 0.00 0.00 0.00 50 1024.0
20181216100404 28 270 2.0 2.0 0.00 0.00 0.00 50 1024.0
20181216095203 28 248 2.0 2.0 0.00 0.00 0.00 50 1024.4
20181216094104 28 270 2.0 3.0 0.00 0.00 0.00 49 1024.0
20181216093004 28 270 3.0 3.0 0.00 0.00 0.00 48 1024.0
20181216091704 29 270 3.0 3.0 0.00 0.00 0.00 45 1024.0
20181216090704 31 270 3.0 3.0 0.00 0.00 0.00 43 1024.0
20181216085604 33 270 0.0 0.0 0.00 0.00 0.00 39 1023.7
20181216084504 32 270 3.0 3.0 0.00 0.00 0.00 40 1023.7
20181216083404 32 248 2.0 2.0 0.00 0.00 0.00 40 1023.7
20181216082004 33 270 3.0 3.0 0.00 0.00 0.00 39 1023.7
20181216080603 31 270 3.0 4.0 0.00 0.00 0.00 41 1023.7
20181216075504 31 270 3.0 3.0 0.00 0.00 0.00 44 1023.7
20181216074404 33 270 3.0 3.0 0.00 0.00 0.00 40 1023.4
20181216073304 33 248 2.0 3.0 0.00 0.00 0.00 40 1023.4
20181216072104 33 270 2.0 2.0 0.00 0.00 0.00 40 1023.4
20181216071103 34 270 2.0 3.0 0.00 0.00 0.00 40 1023.4
20181216070008 34 225 4.0 4.0 0.00 0.00 0.00 40 1023.4
20181216064904 34 270 2.0 4.0 0.00 0.00 0.00 40 1023.0
20181216063804 34 225 4.0 4.0 0.00 0.00 0.00 40 1023.4
20181216062704 34 248 2.0 3.0 0.00 0.00 0.00 40 1023.4
20181216061604 34 203 2.0 3.0 0.00 0.00 0.00 40 1023.0
20181216060304 34 248 2.0 3.0 0.00 0.00 0.00 40 1023.0
20181216055204 34 248 2.0 3.0 0.00 0.00 0.00 37 1023.0
20181216054104 34 270 3.0 3.0 0.00 0.00 0.00 37 1022.7
20181216053004 34 270 2.0 3.0 0.00 0.00 0.00 35 1022.7
20181216051904 34 248 3.0 3.0 0.00 0.00 0.00 35 1022.7